loading
|
Showing default

OPS 3367 B, 735

Orbit data source: Space-Track

OPS 3367 B, 735 is an American payload satellite in SSO that was launched on Sun, 19 Jan 1964 UTC via a THOR SLV-2 AGENA D launch vehicle from the Air Force Western Test Range (AFWTR). Payloads include a variety of satellites, spacecraft, and rockets equipped with specific instruments for various scientific and technological missions. These include communications satellites like Starlink; space stations such as the ISS; scientific satellites like the Hubble; Earth observation satellites from companies like Planet Labs, Umbra, and HawkEye 360; GPS; miniature CubeSats for education and research; and military/defense satellites.

Loading next visibility...
Loading greatness...
OPS 3367 B details
Identifier
735, 1964-002C
Orbit
SSO
Last TLE update15 hours ago
Origin
Flag of USNRO/SAFSP (US)
ManufacturerRCA/East Windsor
Mission statusUnknown
MissionDefense Weather
Bus & MotorP35, Unknown motor
Mass50 kg wet, 50 kg dry
Launch date (UTC)
1964-01-19 (61 years ago)
Launch vehicle
THOR SLV-2 AGENA D
Launch site
Air Force Western Test Range (AFWTR)
Object type
Payload
Rocket body
Debris
Radar Cross SectionMedium (>0.1 m² and <1 m²)

Expand to show TLE details & history

TLE from 15 hours ago
0 OPS 3367 B
1 00735U 64002C   24258.69915616  .00000605  00000-0  26111-3 0  9996
2 00735  98.9987 153.6508 0016756   6.0865 354.0516 14.28247703155277
Epoch: 2024-09-14T16:46Z
Definitive object data (Epoch: 2024-09-14T16:46:47.092Z)
Latitude0.00002°
Longitude-92.19855°
Altitude788.549 km
Speed7.466 km/s
True Right ascension10h 14m 36s
True Declination0° 00' 00"
Sunlit
Object was in daylight at TLE epoch
Predictive object data (real-time)
Latitude17.58482°
Longitude-94.40694°
Altitude788.23 km
Speed7.467 km/s
Apparent Right ascension11h 08m 58s
Apparent Declination-9° 47' 53"
Sunlit
Object is in daylight
Predictive observer data (real-time)
Local Sidereal Time00:38:16
Azimuth39.483° NE
Elevation-53.934°
Doppler factor1
Orbital elements
Apogee806.775 km
Perigee782.737 km
Semi-major axis7,172.893 km
Eccentricity0.0016756
Inclination98.9987°
RAAN153.6508°
Arg. of periapsis6.0865°
True anomaly354.03166°
Mean anomaly354.0516°
Eccentric anomaly354.04163°
Mean motion3.57274 °/min
BSTAR0.00026111
Period100.76 mins
No data available
Other satellites on launch #2 in the year 1964 (1964-01-19 UTC)

OPS 3367 B Visibility forecast

Observer location: 39.9160978°, -105.1181434

OPS 3367 B is not visible in the next 10 days
Span
Click to sort rows by Start time (UTC) header in descending order
Start Az.
Max El. time (UTC)
Max El. Az.
Max El.
End time (UTC)
End Az.